When you browse on this site, cookies collect data to enhance your experience and personalize the content and advertising you see.
Visit our Privacy Policy to learn more. By continuing to use the site, you agree to this use of cookies and data.
  • In Deutschland
  • Länderverzeichnis
  • Für 7 Tage
  • Wassertemperatur
  • Wetterkarte
  • Widgets
  • user-avatar
    Anmelden

    Stündliche Wetter Fier

    Heute, 12 Dezember, Donnerstag

    Zeit Temperatur Niederschläge Wind Luftdruck Luftfeuchtigkeit
    00:00 +9°C° 0 mm 3 m/S 754 mmHg 74%
    01:00 +9°C° 0 mm 3 m/S 754 mmHg 74%
    02:00 +8°C° 0 mm 3 m/S 754 mmHg 74%
    03:00 +8°C° 0 mm 3 m/S 753 mmHg 74%
    04:00 +8°C° 0 mm 3 m/S 753 mmHg 75%
    05:00 +8°C° 0 mm 2 m/S 753 mmHg 75%
    06:00 +8°C° 0 mm 2 m/S 753 mmHg 75%
    07:00 +8°C° 0 mm 2 m/S 753 mmHg 74%
    08:00 +10°C° 0 mm 2 m/S 753 mmHg 71%
    09:00 +12°C° 0 mm 2 m/S 753 mmHg 68%
    10:00 +13°C° 0 mm 1 m/S 753 mmHg 64%
    11:00 +14°C° 0 mm 2 m/S 753 mmHg 64%
    12:00 +14°C° 0 mm 2 m/S 752 mmHg 64%
    13:00 +15°C° 0 mm 2 m/S 752 mmHg 64%
    14:00 +14°C° 0.4 mm 2 m/S 752 mmHg 71%
    15:00 +13°C° 0.4 mm 2 m/S 752 mmHg 78%
    16:00 +12°C° 0.4 mm 2 m/S 752 mmHg 85%
    17:00 +11°C° 0.4 mm 3 m/S 752 mmHg 85%
    18:00 +11°C° 0.4 mm 3 m/S 752 mmHg 84%
    19:00 +10°C° 0.4 mm 3 m/S 752 mmHg 84%
    20:00 +10°C° 0.3 mm 3 m/S 752 mmHg 83%
    21:00 +10°C° 0.3 mm 4 m/S 752 mmHg 83%
    22:00 +10°C° 0.3 mm 4 m/S 751 mmHg 82%
    23:00 +10°C° 0.6 mm 3 m/S 751 mmHg 83%

    Morgen, 13 Dezember, Freitag

    Zeit Temperatur Niederschläge Wind Luftdruck Luftfeuchtigkeit
    00:00 +10°C° 0.6 mm 3 m/S 751 mmHg 83%
    01:00 +10°C° 0.6 mm 3 m/S 751 mmHg 84%
    02:00 +10°C° 0.6 mm 3 m/S 750 mmHg 84%
    03:00 +10°C° 0.6 mm 3 m/S 750 mmHg 84%
    04:00 +10°C° 0.6 mm 3 m/S 750 mmHg 84%
    05:00 +10°C° 0.3 mm 3 m/S 750 mmHg 84%
    06:00 +10°C° 0.3 mm 3 m/S 750 mmHg 84%
    07:00 +10°C° 0.3 mm 4 m/S 750 mmHg 84%
    08:00 +11°C° 0.2 mm 4 m/S 750 mmHg 78%
    09:00 +12°C° 0.2 mm 4 m/S 750 mmHg 72%
    10:00 +13°C° 0.2 mm 4 m/S 750 mmHg 67%
    11:00 +13°C° 0.1 mm 5 m/S 750 mmHg 65%
    12:00 +14°C° 0.1 mm 6 m/S 749 mmHg 63%
    13:00 +14°C° 0.1 mm 6 m/S 749 mmHg 62%
    14:00 +14°C° 0.2 mm 6 m/S 748 mmHg 66%
    15:00 +13°C° 0.2 mm 6 m/S 748 mmHg 69%
    16:00 +11°C° 0.2 mm 6 m/S 747 mmHg 73%
    17:00 +11°C° 0.4 mm 6 m/S 747 mmHg 75%
    18:00 +11°C° 0.4 mm 7 m/S 746 mmHg 77%
    19:00 +11°C° 0.4 mm 7 m/S 746 mmHg 78%
    20:00 +10°C° 0.4 mm 7 m/S 745 mmHg 79%
    21:00 +10°C° 0.4 mm 7 m/S 744 mmHg 81%
    22:00 +10°C° 0.4 mm 8 m/S 743 mmHg 82%
    23:00 +10°C° 2.8 mm 7 m/S 742 mmHg 85%

    übermorgen, 14 Dezember, Samstag

    Zeit Temperatur Niederschläge Wind Luftdruck Luftfeuchtigkeit
    00:00 +10°C° 2.8 mm 7 m/S 741 mmHg 87%
    01:00 +10°C° 2.8 mm 7 m/S 740 mmHg 90%
    02:00 +10°C° 2.2 mm 7 m/S 740 mmHg 87%
    03:00 +10°C° 2.2 mm 6 m/S 740 mmHg 83%
    04:00 +10°C° 2.2 mm 5 m/S 740 mmHg 80%
    05:00 +9°C° 1.2 mm 5 m/S 741 mmHg 83%
    06:00 +10°C° 1.2 mm 4 m/S 741 mmHg 87%
    07:00 +8°C° 1.2 mm 4 m/S 742 mmHg 90%
    08:00 +10°C° 0.3 mm 3 m/S 742 mmHg 86%
    09:00 +11°C° 0.3 mm 3 m/S 743 mmHg 81%
    10:00 +13°C° 0.3 mm 2 m/S 744 mmHg 77%
    11:00 +12°C° 0 mm 3 m/S 744 mmHg 74%
    12:00 +13°C° 0 mm 4 m/S 745 mmHg 72%
    13:00 +14°C° 0 mm 5 m/S 746 mmHg 70%
    14:00 +13°C° 0 mm 5 m/S 747 mmHg 72%
    15:00 +13°C° 0 mm 5 m/S 748 mmHg 74%
    16:00 +12°C° 0 mm 5 m/S 749 mmHg 76%
    17:00 +12°C° 0 mm 5 m/S 750 mmHg 77%
    18:00 +12°C° 0 mm 4 m/S 751 mmHg 78%
    19:00 +11°C° 0 mm 3 m/S 753 mmHg 79%
    20:00 +11°C° 0 mm 3 m/S 754 mmHg 79%
    21:00 +11°C° 0 mm 3 m/S 755 mmHg 79%
    22:00 +11°C° 0 mm 3 m/S 756 mmHg 79%
    23:00 +10°C° 0 mm 3 m/S 756 mmHg 80%

    15 Dezember, Sonntag

    Zeit Temperatur Niederschläge Wind Luftdruck Luftfeuchtigkeit
    00:00 +10°C° 0 mm 3 m/S 757 mmHg 80%
    01:00 +10°C° 0 mm 2 m/S 758 mmHg 80%
    02:00 +10°C° 0 mm 2 m/S 758 mmHg 80%
    03:00 +10°C° 0 mm 2 m/S 759 mmHg 79%
    04:00 +10°C° 0 mm 2 m/S 759 mmHg 79%
    05:00 +10°C° 0 mm 2 m/S 760 mmHg 79%
    06:00 +10°C° 0 mm 2 m/S 760 mmHg 79%
    07:00 +10°C° 0 mm 3 m/S 761 mmHg 78%
    08:00 +12°C° 0 mm 2 m/S 761 mmHg 75%
    09:00 +14°C° 0 mm 2 m/S 762 mmHg 71%
    10:00 +16°C° 0 mm 2 m/S 762 mmHg 68%
    11:00 +17°C° 0 mm 2 m/S 762 mmHg 65%
    12:00 +19°C° 0 mm 1 m/S 762 mmHg 63%
    13:00 +20°C° 0 mm 1 m/S 762 mmHg 60%
    14:00 +19°C° 0 mm 1 m/S 763 mmHg 65%
    15:00 +18°C° 0 mm 1 m/S 763 mmHg 71%
    16:00 +16°C° 0 mm 2 m/S 763 mmHg 76%
    17:00 +15°C° 0 mm 2 m/S 764 mmHg 77%
    18:00 +15°C° 0 mm 2 m/S 764 mmHg 78%
    19:00 +13°C° 0 mm 3 m/S 765 mmHg 79%
    20:00 +13°C° 0 mm 3 m/S 765 mmHg 78%
    21:00 +14°C° 0 mm 2 m/S 765 mmHg 78%
    22:00 +13°C° 0 mm 2 m/S 766 mmHg 78%
    23:00 +13°C° 0 mm 2 m/S 766 mmHg 78%

    16 Dezember, Montag

    Zeit Temperatur Niederschläge Wind Luftdruck Luftfeuchtigkeit
    00:00 +13°C° 0 mm 2 m/S 766 mmHg 77%
    01:00 +13°C° 0 mm 2 m/S 766 mmHg 77%
    02:00 +13°C° 0 mm 2 m/S 766 mmHg 77%
    03:00 +13°C° 0 mm 2 m/S 766 mmHg 78%
    04:00 +13°C° 0 mm 2 m/S 766 mmHg 78%
    05:00 +11°C° 0 mm 3 m/S 767 mmHg 78%
    06:00 +11°C° 0 mm 3 m/S 767 mmHg 78%
    07:00 +11°C° 0 mm 3 m/S 767 mmHg 79%
    08:00 +14°C° 0 mm 2 m/S 767 mmHg 75%
    09:00 +15°C° 0 mm 2 m/S 768 mmHg 71%
    10:00 +16°C° 0 mm 2 m/S 768 mmHg 68%
    11:00 +17°C° 0 mm 2 m/S 767 mmHg 66%
    12:00 +18°C° 0 mm 2 m/S 767 mmHg 65%
    13:00 +18°C° 0 mm 2 m/S 767 mmHg 64%
    14:00 +17°C° 0 mm 2 m/S 767 mmHg 68%
    15:00 +17°C° 0 mm 2 m/S 767 mmHg 73%
    16:00 +16°C° 0 mm 2 m/S 767 mmHg 78%
    17:00 +15°C° 0 mm 2 m/S 767 mmHg 79%
    18:00 +15°C° 0 mm 2 m/S 767 mmHg 80%
    19:00 +14°C° 0 mm 2 m/S 767 mmHg 80%
    20:00 +14°C° 0 mm 2 m/S 767 mmHg 81%
    21:00 +13°C° 0 mm 2 m/S 767 mmHg 81%
    22:00 +13°C° 0 mm 2 m/S 767 mmHg 81%
    23:00 +13°C° 0 mm 2 m/S 767 mmHg 81%

    17 Dezember, Dienstag

    Zeit Temperatur Niederschläge Wind Luftdruck Luftfeuchtigkeit
    00:00 +13°C° 0 mm 2 m/S 767 mmHg 81%
    01:00 +13°C° 0 mm 2 m/S 767 mmHg 81%
    02:00 +12°C° 0 mm 2 m/S 767 mmHg 81%
    03:00 +12°C° 0 mm 2 m/S 767 mmHg 81%
    04:00 +12°C° 0 mm 2 m/S 767 mmHg 80%
    05:00 +12°C° 0 mm 2 m/S 767 mmHg 80%
    06:00 +12°C° 0 mm 2 m/S 767 mmHg 79%
    07:00 +12°C° 0 mm 2 m/S 767 mmHg 79%
    08:00 +13°C° 0 mm 2 m/S 767 mmHg 74%
    09:00 +14°C° 0 mm 2 m/S 767 mmHg 70%
    10:00 +16°C° 0 mm 2 m/S 767 mmHg 66%
    11:00 +17°C° 0 mm 2 m/S 767 mmHg 64%
    12:00 +17°C° 0 mm 2 m/S 766 mmHg 62%
    13:00 +18°C° 0 mm 2 m/S 766 mmHg 60%
    14:00 +17°C° 0 mm 2 m/S 766 mmHg 65%
    15:00 +16°C° 0 mm 2 m/S 766 mmHg 70%
    16:00 +14°C° 0 mm 3 m/S 766 mmHg 75%
    17:00 +14°C° 0 mm 3 m/S 766 mmHg 76%
    18:00 +14°C° 0 mm 2 m/S 766 mmHg 77%
    19:00 +13°C° 0 mm 2 m/S 766 mmHg 79%
    20:00 +13°C° 0 mm 2 m/S 767 mmHg 79%
    21:00 +13°C° 0 mm 2 m/S 767 mmHg 79%
    22:00 +13°C° 0 mm 2 m/S 767 mmHg 79%
    23:00 +13°C° 0 mm 2 m/S 767 mmHg 79%
    Mehr zeigen